TimeCST,TemperatureF,Dew PointF,Humidity,Sea Level PressureIn,VisibilityMPH,Wind Direction,Wind SpeedMPH,Gust SpeedMPH,PrecipitationIn,Events,Conditions,WindDirDegrees,DateUTC
12:53 AM,39.9,35.1,83,30.22,10.0,NW,3.5,-,N/A,,Partly Cloudy,320,2012-11-04 05:53:00
1:53 AM,42.8,35.6,76,30.20,10.0,North,3.5,-,N/A,,Partly Cloudy,360,2012-11-04 06:53:00
1:53 AM,42.1,36.0,79,30.20,10.0,Calm,Calm,-,N/A,,Scattered Clouds,0,2012-11-04 07:53:00
2:53 AM,37.9,34.0,86,30.20,10.0,Calm,Calm,-,N/A,,Partly Cloudy,0,2012-11-04 08:53:00
3:53 AM,35.1,32.0,89,30.21,10.0,Calm,Calm,-,N/A,,Partly Cloudy,0,2012-11-04 09:53:00
4:53 AM,34.0,30.9,89,30.22,10.0,Calm,Calm,-,N/A,,Partly Cloudy,0,2012-11-04 10:53:00
5:53 AM,33.1,32.0,96,30.22,10.0,SW,4.6,-,N/A,,Scattered Clouds,230,2012-11-04 11:53:00
6:53 AM,37.0,34.0,89,30.22,10.0,Calm,Calm,-,N/A,,Partly Cloudy,0,2012-11-04 12:53:00
7:53 AM,39.9,36.0,86,30.23,10.0,Calm,Calm,-,N/A,,Scattered Clouds,0,2012-11-04 13:53:00
8:53 AM,46.9,37.0,68,30.23,10.0,South,5.8,-,N/A,,Mostly Cloudy,190,2012-11-04 14:53:00
9:53 AM,53.1,36.0,52,30.20,10.0,South,12.7,-,N/A,,Mostly Cloudy,190,2012-11-04 15:53:00
10:53 AM,59.0,36.0,42,30.19,10.0,South,12.7,-,N/A,,Scattered Clouds,180,2012-11-04 16:53:00
11:53 AM,63.0,35.1,35,30.16,10.0,South,12.7,-,N/A,,Scattered Clouds,190,2012-11-04 17:53:00
12:53 PM,64.9,34.0,32,30.12,10.0,SSW,13.8,-,N/A,,Scattered Clouds,200,2012-11-04 18:53:00
1:53 PM,66.9,32.0,27,30.08,10.0,SSW,15.0,-,N/A,,Mostly Cloudy,200,2012-11-04 19:53:00
2:53 PM,66.9,30.9,26,30.06,10.0,SSW,11.5,-,N/A,,Mostly Cloudy,200,2012-11-04 20:53:00
3:53 PM,66.9,28.9,24,30.05,10.0,South,15.0,-,N/A,,Scattered Clouds,190,2012-11-04 21:53:00
4:53 PM,64.0,30.0,28,30.04,10.0,SSW,15.0,-,N/A,,Scattered Clouds,200,2012-11-04 22:53:00
5:53 PM,55.0,30.0,38,30.06,10.0,SSW,5.8,-,N/A,,Scattered Clouds,200,2012-11-04 23:53:00
6:53 PM,52.0,30.9,45,30.06,10.0,South,9.2,-,N/A,,Scattered Clouds,180,2012-11-05 00:53:00
7:53 PM,53.1,32.0,45,30.05,10.0,South,5.8,-,N/A,,Mostly Cloudy,180,2012-11-05 01:53:00
8:53 PM,53.1,32.0,45,30.06,10.0,South,5.8,-,N/A,,Mostly Cloudy,180,2012-11-05 02:53:00
9:53 PM,53.1,32.0,45,30.06,10.0,Calm,Calm,-,N/A,,Mostly Cloudy,0,2012-11-05 03:53:00
10:53 PM,55.0,33.1,43,30.06,10.0,Calm,Calm,-,N/A,,Overcast,0,2012-11-05 04:53:00